FW5910 Weather Reports


Display with metric or nautical units.
time (UTC)temp
F
wind
direction
speed
MPH
gust
MPH
rain 1hr
in
rain 24hr
in
rain mn
in
humidity
%
barometer
mb
20260902070155 69 0 1.0 3.0 0.00 0.00 0.00 36 1008.7
20260902065141 70 0 1.0 4.0 0.00 0.00 0.00 35 1008.7
20260902064635 70 0 2.0 4.0 0.00 0.00 0.00 34 1008.6
20260902063635 71 0 2.0 5.0 0.00 0.00 0.00 33 1008.6
20260902061139 70 0 2.0 5.0 0.00 0.00 0.00 34 1008.7
20260902060633 71 0 2.0 5.0 0.00 0.00 0.00 34 1008.7
20260902055631 72 0 2.0 5.0 0.00 0.00 0.00 31 1008.5
20260902055131 72 0 3.0 5.0 0.00 0.00 0.00 32 1008.5
20260902054134 72 0 2.0 5.0 0.00 0.00 0.00 34 1008.5
20260902053630 72 0 2.0 4.0 0.00 0.00 0.00 34 1008.6
20260902052631 73 0 4.0 9.0 0.00 0.00 0.00 32 1009.1
20260902052133 73 0 3.0 9.0 0.00 0.00 0.00 34 1009.2
20260902051635 72 0 3.0 8.0 0.00 0.00 0.00 33 1009.4
20260902051131 72 0 3.0 8.0 0.00 0.00 0.00 32 1009.5
20260902050631 72 0 3.0 10.0 0.00 0.00 0.00 32 1009.5
20260902050133 72 0 3.0 10.0 0.00 0.00 0.00 32 1009.5
20260902045631 72 0 3.0 6.0 0.00 0.00 0.00 33 1009.5
20260902045131 72 0 3.0 9.0 0.00 0.00 0.00 33 1009.6
20260902044631 72 0 3.0 10.0 0.00 0.00 0.00 33 1009.6
20260902044131 72 0 3.0 10.0 0.00 0.00 0.00 32 1009.6
20260902043631 72 0 3.0 11.0 0.00 0.00 0.00 32 1009.6
20260902043133 72 0 4.0 11.0 0.00 0.00 0.00 33 1009.6
20260902041633 72 0 2.0 5.0 0.00 0.00 0.00 33 1009.6
20260902041137 72 0 2.0 5.0 0.00 0.00 0.00 31 1009.6
20260902040632 72 0 2.0 8.0 0.00 0.00 0.00 30 1009.6
20260902040132 72 0 1.0 8.0 0.00 0.00 0.00 29 1009.6
20260902035632 71 0 0.0 3.0 0.00 0.00 0.00 30 1009.5
20260902035134 71 0 0.0 3.0 0.00 0.00 0.00 31 1009.4
20260902034631 71 0 0.0 2.0 0.00 0.00 0.00 37 1009.4
20260902034130 71 0 0.0 2.0 0.00 0.00 0.00 33 1009.4
20260902033631 71 0 0.0 3.0 0.00 0.00 0.00 33 1009.5
20260902033130 71 0 1.0 4.0 0.00 0.00 0.00 35 1009.6
20260902032631 71 0 1.0 4.0 0.00 0.00 0.00 36 1009.5
20260902032132 71 0 1.0 3.0 0.00 0.00 0.00 38 1009.4
20260902031636 71 0 2.0 4.0 0.00 0.00 0.00 36 1009.5
20260902030133 72 0 1.0 4.0 0.00 0.00 0.00 35 1009.1
20260902025632 73 0 1.0 4.0 0.00 0.00 0.00 37 1009.0
20260902025132 74 0 1.0 4.0 0.00 0.00 0.00 30 1009.0
20260902024131 74 0 2.0 4.0 0.00 0.00 0.00 29 1008.5
20260902023131 74 0 3.0 12.0 0.00 0.00 0.00 30 1008.4
20260902022630 74 0 4.0 12.0 0.00 0.00 0.00 29 1008.3
20260902022134 73 0 2.0 5.0 0.00 0.00 0.00 33 1008.2
20260902021635 73 0 2.0 8.0 0.00 0.00 0.00 34 1007.9
20260902021131 72 0 3.0 8.0 0.00 0.00 0.00 38 1007.8
20260902020130 72 0 1.0 4.0 0.00 0.00 0.00 44 1007.4
20260902015631 73 219 0.0 3.0 0.00 0.00 0.00 42 1007.2
20260902015130 73 215 0.0 1.0 0.00 0.00 0.00 40 1006.9
20260902014631 74 215 1.0 4.0 0.00 0.00 0.00 37 1006.8
20260902013133 74 205 2.0 6.0 0.00 0.00 0.00 31 1006.8
20260902012130 74 212 2.0 6.0 0.00 0.00 0.00 33 1006.7
20260902011632 74 213 1.0 6.0 0.00 0.00 0.00 34 1006.6
20260902010631 75 192 2.0 4.0 0.00 0.00 0.00 34 1006.6
20260902010131 75 246 3.0 6.0 0.00 0.00 0.00 34 1006.5
20260902005631 75 242 3.0 6.0 0.00 0.00 0.00 35 1006.5
20260902004631 76 0 0.0 3.0 0.00 0.00 0.00 35 1006.5
20260902004132 77 0 1.0 3.0 0.00 0.00 0.00 34 1006.5
20260902003631 77 0 3.0 5.0 0.00 0.00 0.00 33 1006.5
20260902003133 78 0 4.0 8.0 0.00 0.00 0.00 32 1006.5
20260902002634 79 0 2.0 8.0 0.00 0.00 0.00 29 1006.3
20260902001633 80 332 0.0 0.0 0.00 0.00 0.00 22 1006.3
20260902001131 80 332 0.0 0.0 0.00 0.00 0.00 22 1006.5
20260902000632 81 332 0.0 0.0 0.00 0.00 0.00 28 1006.5
20260902000136 81 332 0.0 0.0 0.00 0.00 0.00 24 1006.5
20260901235633 81 332 0.0 0.0 0.00 0.00 0.00 19 1006.5
20260901235131 80 332 0.0 1.0 0.00 0.00 0.00 21 1006.6
20260901234631 80 332 0.0 2.0 0.00 0.00 0.00 21 1006.6
20260901234130 80 331 1.0 2.0 0.00 0.00 0.00 22 1006.7
20260901233129 81 332 2.0 4.0 0.00 0.00 0.00 19 1006.6
20260901232630 81 340 2.0 5.0 0.00 0.00 0.00 19 1006.7
20260901232128 82 329 2.0 5.0 0.00 0.00 0.00 19 1006.7
20260901231630 82 329 1.0 4.0 0.00 0.00 0.00 21 1006.7
20260901231129 82 11 1.0 4.0 0.00 0.00 0.00 18 1006.8
20260901230630 83 355 1.0 4.0 0.00 0.00 0.00 21 1006.9
20260901230130 83 27 1.0 4.0 0.00 0.00 0.00 17 1006.9
20260901225631 82 351 2.0 5.0 0.00 0.00 0.00 19 1006.9
20260901225133 82 340 2.0 5.0 0.00 0.00 0.00 19 1007.0
20260901224633 82 346 2.0 6.0 0.00 0.00 0.00 19 1007.1
20260901224131 82 355 2.0 8.0 0.00 0.00 0.00 18 1007.1
20260901223632 82 336 2.0 8.0 0.00 0.00 0.00 19 1007.3
20260901223130 82 10 2.0 6.0 0.00 0.00 0.00 21 1007.3
20260901222130 82 331 1.0 5.0 0.00 0.00 0.00 19 1007.4
20260901221626 83 341 1.0 5.0 0.00 0.00 0.00 18 1007.5
20260901221121 83 331 1.0 4.0 0.00 0.00 0.00 18 1007.5
20260901220616 83 23 2.0 4.0 0.00 0.00 0.00 21 1007.7
20260901220114 82 14 2.0 5.0 0.00 0.00 0.00 19 1007.5
20260901215115 82 355 2.0 4.0 0.00 0.00 0.00 19 1007.7
20260901214612 83 0 2.0 4.0 0.00 0.00 0.00 20 1007.7
20260901214113 83 336 1.0 3.0 0.00 0.00 0.00 20 1007.7
20260901213613 83 14 1.0 3.0 0.00 0.00 0.00 21 1007.8
20260901212612 83 355 1.0 2.0 0.00 0.00 0.00 22 1008.0
20260901212114 82 338 1.0 3.0 0.00 0.00 0.00 20 1008.1
20260901211614 82 343 1.0 3.0 0.00 0.00 0.00 20 1008.3
20260901211113 82 19 1.0 3.0 0.00 0.00 0.00 23 1008.4
20260901210611 82 348 1.0 3.0 0.00 0.00 0.00 21 1008.4
20260901210111 83 350 1.0 3.0 0.00 0.00 0.00 22 1008.5
20260901204612 81 68 1.0 3.0 0.00 0.00 0.00 24 1008.7
20260901204111 81 28 1.0 2.0 0.00 0.00 0.00 23 1008.9
20260901203612 80 0 1.0 2.0 0.00 0.00 0.00 23 1009.0
20260901203112 80 13 1.0 2.0 0.00 0.00 0.00 26 1009.1
20260901202607 80 0 1.0 2.0 0.00 0.00 0.00 24 1009.1
20260901201608 79 82 0.0 2.0 0.00 0.00 0.00 25 1009.3
20260901201107 79 82 0.0 3.0 0.00 0.00 0.00 27 1009.3
20260901200607 78 90 1.0 3.0 0.00 0.00 0.00 25 1009.3
20260901195607 78 35 1.0 2.0 0.00 0.00 0.00 29 1009.4
20260901195109 77 5 1.0 3.0 0.00 0.00 0.00 25 1009.4
20260901194103 77 0 0.0 2.0 0.00 0.00 0.00 29 1009.5
20260901193604 76 355 0.0 2.0 0.00 0.00 0.00 28 1009.6
20260901193103 76 350 1.0 2.0 0.00 0.00 0.00 28 1009.8
20260901192603 76 74 0.0 2.0 0.00 0.00 0.00 31 1010.0
20260901192102 75 76 1.0 2.0 0.00 0.00 0.00 29 1010.1
20260901191604 74 67 1.0 2.0 0.00 0.00 0.00 30 1010.1
20260901191103 74 62 1.0 2.0 0.00 0.00 0.00 31 1010.2
20260901190602 73 61 1.0 2.0 0.00 0.00 0.00 30 1010.3
20260901185602 73 87 1.0 3.0 0.00 0.00 0.00 32 1010.5
20260901185103 72 86 1.0 3.0 0.00 0.00 0.00 33 1010.6
20260901184603 72 56 1.0 2.0 0.00 0.00 0.00 31 1010.7
20260901184103 72 355 0.0 1.0 0.00 0.00 0.00 31 1010.9
20260901183605 71 12 1.0 2.0 0.00 0.00 0.00 29 1010.9
20260901183102 71 17 1.0 2.0 0.00 0.00 0.00 31 1011.0
20260901182606 71 17 1.0 2.0 0.00 0.00 0.00 28 1011.2
20260901182109 70 41 1.0 2.0 0.00 0.00 0.00 29 1011.3
20260901181606 70 62 1.0 2.0 0.00 0.00 0.00 32 1011.3
20260901181104 69 21 0.0 2.0 0.00 0.00 0.00 32 1011.4
20260901180602 68 11 0.0 2.0 0.00 0.00 0.00 34 1011.4
20260901180105 68 15 0.0 2.0 0.00 0.00 0.00 35 1011.6
20260901175607 67 0 0.0 2.0 0.00 0.00 0.00 35 1011.6
20260901175106 67 0 1.0 3.0 0.00 0.00 0.00 36 1011.7
20260901174606 67 0 1.0 3.0 0.00 0.00 0.00 40 1011.9
20260901174106 66 0 1.0 3.0 0.00 0.00 0.00 39 1011.9
20260901173606 66 0 1.0 2.0 0.00 0.00 0.00 39 1012.0
20260901173103 65 0 1.0 3.0 0.00 0.00 0.00 41 1012.0
20260901172604 65 0 2.0 3.0 0.00 0.00 0.00 39 1012.1
20260901172102 64 0 2.0 3.0 0.00 0.00 0.00 38 1012.0
20260901171602 64 0 2.0 3.0 0.00 0.00 0.00 41 1012.2
20260901171103 63 0 2.0 3.0 0.00 0.00 0.00 44 1012.2
20260901170602 63 0 2.0 3.0 0.00 0.00 0.00 44 1012.2
20260901165603 62 0 1.0 2.0 0.00 0.00 0.00 47 1012.2
20260901165058 62 0 1.0 3.0 0.00 0.00 0.00 47 1012.4
20260901164558 62 0 1.0 3.0 0.00 0.00 0.00 47 1012.2
20260901164058 61 0 1.0 3.0 0.00 0.00 0.00 49 1012.2
20260901163556 61 0 1.0 3.0 0.00 0.00 0.00 48 1012.2
20260901163055 61 0 1.0 3.0 0.00 0.00 0.00 49 1012.0
20260901162056 59 0 1.0 3.0 0.00 0.00 0.00 53 1012.2
20260901161558 59 0 1.0 2.0 0.00 0.00 0.00 53 1012.4
20260901161057 58 0 1.0 3.0 0.00 0.00 0.00 53 1012.4
20260901160558 58 0 2.0 3.0 0.00 0.00 0.00 53 1012.5
20260901160055 58 0 2.0 3.0 0.00 0.00 0.00 53 1012.4
20260901155555 58 0 1.0 3.0 0.00 0.00 0.00 56 1012.4
20260901155056 57 0 2.0 3.0 0.00 0.00 0.00 55 1012.5
20260901154548 57 0 2.0 4.0 0.00 0.00 0.00 55 1012.5
20260901154046 57 0 2.0 4.0 0.00 0.00 0.00 55 1012.5
20260901153547 57 0 2.0 4.0 0.00 0.00 0.00 56 1012.5
20260901152544 56 0 3.0 4.0 0.00 0.00 0.00 57 1012.4
20260901152046 56 0 2.0 4.0 0.00 0.00 0.00 58 1012.5
20260901151544 56 0 2.0 4.0 0.00 0.00 0.00 57 1012.6
20260901151040 56 0 2.0 4.0 0.00 0.00 0.00 57 1012.5
20260901150545 56 0 1.0 3.0 0.00 0.00 0.00 55 1012.6
20260901150040 56 0 1.0 3.0 0.00 0.00 0.00 55 1012.5
20260901145537 55 0 2.0 3.0 0.00 0.00 0.00 56 1012.5
20260901144540 54 0 1.0 4.0 0.00 0.00 0.00 59 1012.4
20260901144040 54 0 1.0 3.0 0.00 0.00 0.00 65 1012.2
20260901143538 54 0 1.0 3.0 0.00 0.00 0.00 66 1012.1
20260901143037 53 0 1.0 3.0 0.00 0.00 0.00 64 1012.2
20260901142535 52 0 0.0 0.0 0.00 0.00 0.00 64 1012.1
20260901142031 51 0 0.0 0.0 0.00 0.00 0.00 71 1012.1
20260901141532 49 310 0.0 0.0 0.00 0.00 0.00 73 1012.2
20260901140533 47 309 0.0 0.0 0.00 0.00 0.00 70 1012.4
20260901135034 47 309 0.0 0.0 0.00 0.00 0.00 68 1012.2
20260901134532 47 309 0.0 0.0 0.00 0.00 0.00 69 1012.0
20260901134032 47 309 0.0 0.0 0.00 0.00 0.00 68 1011.9
20260901133030 47 309 0.0 0.0 0.00 0.00 0.00 69 1011.8
20260901132531 47 309 0.0 0.0 0.00 0.00 0.00 71 1011.8
20260901132032 47 309 0.0 0.0 0.00 0.00 0.00 72 1011.9
20260901131531 47 309 0.0 0.0 0.00 0.00 0.00 72 1011.8
20260901131032 47 309 0.0 0.0 0.00 0.00 0.00 70 1011.8
20260901130532 47 309 0.0 0.0 0.00 0.00 0.00 71 1011.7
20260901125531 47 309 0.0 0.0 0.00 0.00 0.00 70 1011.5
20260901125030 47 309 0.0 0.0 0.00 0.00 0.00 70 1011.6
20260901124532 47 309 0.0 0.0 0.00 0.00 0.00 71 1011.6
20260901124029 47 309 0.0 0.0 0.00 0.00 0.00 70 1011.6
20260901123525 47 309 0.0 0.0 0.00 0.00 0.00 70 1011.6
20260901123018 47 309 0.0 0.0 0.00 0.00 0.00 69 1011.5
20260901122518 47 309 0.0 0.0 0.00 0.00 0.00 69 1011.5
20260901122016 47 309 0.0 0.0 0.00 0.00 0.00 68 1011.6
20260901121515 48 309 0.0 0.0 0.00 0.00 0.00 68 1011.6
20260901121017 48 309 0.0 0.0 0.00 0.00 0.00 69 1011.6
20260901120515 48 309 0.0 0.0 0.00 0.00 0.00 68 1011.6
20260901120012 48 309 0.0 0.0 0.00 0.00 0.00 68 1011.7
20260901115512 48 309 0.0 0.0 0.00 0.00 0.00 67 1011.7
20260901115012 48 309 0.0 0.0 0.00 0.00 0.00 67 1011.6
20260901114510 48 309 0.0 0.0 0.00 0.00 0.00 67 1011.6
20260901114007 48 309 0.0 0.0 0.00 0.00 0.00 67 1011.6
20260901113509 48 309 0.0 0.0 0.00 0.00 0.00 67 1011.6
20260901113011 48 310 0.0 0.0 0.00 0.00 0.00 68 1011.6
20260901111504 48 310 0.0 0.0 0.00 0.00 0.00 67 1011.7
20260901111003 49 309 0.0 0.0 0.00 0.00 0.00 67 1011.6
20260901110502 49 309 0.0 0.0 0.00 0.00 0.00 66 1011.6
20260901110003 49 309 0.0 0.0 0.00 0.00 0.00 67 1011.5
20260901105504 49 309 0.0 0.0 0.00 0.00 0.00 67 1011.7
20260901105002 49 309 0.0 0.0 0.00 0.00 0.00 67 1011.6
20260901104504 49 310 0.0 0.0 0.00 0.00 0.00 67 1011.6
20260901103004 49 309 0.0 0.0 0.00 0.00 0.00 67 1011.5
20260901102005 49 309 1.0 3.0 0.00 0.00 0.00 68 1011.6
20260901101504 49 309 1.0 3.0 0.00 0.00 0.00 69 1011.6
20260901101003 49 292 0.0 0.0 0.00 0.00 0.00 70 1011.6
20260901100503 49 292 0.0 0.0 0.00 0.00 0.00 70 1011.7
20260901100004 49 292 0.0 0.0 0.00 0.00 0.00 69 1011.6
20260901095503 49 292 0.0 0.0 0.00 0.00 0.00 70 1011.7
20260901095002 49 293 0.0 0.0 0.00 0.00 0.00 69 1011.8
20260901094503 49 292 0.0 0.0 0.00 0.00 0.00 68 1011.8
20260901094002 50 293 0.0 0.0 0.00 0.00 0.00 70 1011.8
20260901093503 50 292 0.0 0.0 0.00 0.00 0.00 70 1011.8
20260901091503 51 291 0.0 0.0 0.00 0.00 0.00 68 1011.8
20260901091002 51 291 0.0 0.0 0.00 0.00 0.00 67 1011.8
20260901090506 51 291 0.0 0.0 0.00 0.00 0.00 67 1011.7
20260901090006 52 291 0.0 0.0 0.00 0.00 0.00 70 1011.7
20260901085506 52 291 0.0 0.0 0.00 0.00 0.00 69 1011.7
20260901085004 51 291 0.0 0.0 0.00 0.00 0.00 67 1011.8
20260901084506 51 291 0.0 0.0 0.00 0.00 0.00 66 1011.9
20260901084004 51 290 0.0 2.0 0.00 0.00 0.00 64 1011.9
20260901083503 52 290 1.0 3.0 0.00 0.00 0.00 64 1011.8
20260901082507 52 282 0.0 1.0 0.00 0.00 0.00 61 1011.9
20260901082005 52 283 0.0 1.0 0.00 0.00 0.00 60 1011.9
20260901081505 52 283 0.0 0.0 0.00 0.00 0.00 61 1011.9
20260901080503 52 283 0.0 1.0 0.00 0.00 0.00 61 1012.0
20260901075958 52 283 0.0 2.0 0.00 0.00 0.00 62 1012.0
20260901075453 53 283 1.0 2.0 0.00 0.00 0.00 63 1011.9
20260901074449 53 283 0.0 1.0 0.00 0.00 0.00 64 1012.0
20260901073450 53 283 0.0 1.0 0.00 0.00 0.00 63 1012.1
20260901072950 54 284 0.0 0.0 0.00 0.00 0.00 64 1012.0
20260901072445 54 284 0.0 1.0 0.00 0.00 0.00 64 1012.0
20260901071948 54 284 0.0 1.0 0.00 0.00 0.00 64 1012.0
20260901071443 54 284 0.0 2.0 0.00 0.00 0.00 65 1012.0
20260901070942 54 284 0.0 2.0 0.00 0.00 0.00 66 1012.1